Location: Newark
(60.6561°N, 46.5772°E)
Time: 16:25:51
(UTC+00:00)

Tiros 1 - Pass Details

Date: 21 October 2019
Orbit: 630 x 664 km, 48.4° (Epoch: 21 November)

Event Time Altitude Azimuth Distance (km) Brightness Sun altitude
Exits shadow 00:38:35 18° 167° (SSE) 1,596 9.0 -23.6°
Drops below altitude 10° 00:41:29 10° 130° (SE) 2,084 10.1 -23.2°
Sets 00:44:25 0° 113° (ESE) 2,997 11.3 -22.9°
